Location: *
(51.0333°S, 178.4667°E)
Time: 15:01:41
(UTC+00:00)

CZ-4 R/B - Pass Details

Date: 28 February 2020
Orbit: 531 x 599 km, 97.8° (Epoch: 09 April)

Event Time Altitude Azimuth Distance (km) Brightness Sun altitude
Rises 09:13:00 0° 182° (S) 2,840 5.6 -18.6°
Reaches altitude 10° 09:16:15 10° 209° (SSW) 1,945 5.2 -19.0°
Maximum altitude 09:18:08 13° 236° (SW) 1,762 5.0 -19.2°
Drops below altitude 10° 09:20:03 10° 263° (W) 1,950 4.9 -19.5°
Sets 09:23:19 0° 290° (WNW) 2,853 5.3 -19.8°
